Preview of NWS' New Version of Forecast
This preview is not operational and should not be used for support decisions.

Regional Weather Roundup (RWR)

Issued by National Weather Service (NWS)

                            
000
ASUS46 KPQR 221110
RWROR 

OREGON REGIONAL WEATHER ROUNDUP
NATIONAL WEATHER SERVICE PORTLAND OR
300 AM PST FRI FEB 22 2019

NOTE: "FAIR" INDICATES FEW OR NO CLOUDS BELOW 12,000 FEET WITH
NO SIGNIFICANT WEATHER AND/OR OBSTRUCTIONS TO VISIBILITY.

ORZ001>013-221200-
NORTHWEST OREGON

  
CITY           SKY/WX    TMP DP  RH WIND       PRES   REMARKS
ASTORIA        CLOUDY    32  31  96 S3        30.10S                  
TILLAMOOK      MOCLDY    32  32 100 SE3       30.14F                  
NEWPORT        MOCLDY    32  30  93 E7        30.16S                  
PORTLAND       PTCLDY    33  26  75 E9        30.15F                  
VANCOUVER WA   PTCLDY    34  27  75 E5        30.15S                  
SCAPPOOSE      PTCLDY    32  28  85 CALM      30.14F                  
HILLSBORO      PTCLDY    30  27  88 CALM      30.13F                  
AURORA         PTCLDY    30  27  88 CALM      30.15S                  
MCMINNVILLE    MOCLDY    30  27  88 CALM      30.14S                  
SALEM          MOCLDY    31  26  82 CALM      30.13S                  
CORVALLIS      MOCLDY    29  28  96 CALM      30.16R                  
EUGENE         MOCLDY    30  27  88 SW6       30.15S                  
$$

ORZ021-028-221200-
SOUTHWEST OREGON

  
CITY           SKY/WX    TMP DP  RH WIND       PRES   REMARKS
NORTH BEND     MOCLDY    33  31  92 SE8       30.16F                  
BROOKINGS      MOCLDY    37  29  72 CALM      30.11R                  
ROSEBURG       PTCLDY    30  27  88 CALM      30.15S                  
SEXTON SUMMIT  PTCLDY    24  22  91 SE9       29.99S                  
GRANTS PASS    FAIR      27  25  93 CALM      30.15                   
MEDFORD        CLEAR     30  25  81 N3        30.12S                  
$$

ORZ014>016-041-221200-
COLUMBIA GORGE

  
CITY           SKY/WX    TMP DP  RH WIND       PRES   REMARKS
TROUTDALE      PTCLDY    34  26  72 E5        30.16R                  
HOOD RIVER     MOCLDY    23  21  93 CALM      30.16S                  
THE DALLES     MOCLDY    21  16  81 E3        30.18F                  
$$

ORZ029>031-041-044-049-050-061>064-502-503-505>511-221200-
EASTERN OREGON

  
CITY           SKY/WX    TMP DP  RH WIND       PRES   REMARKS
MADRAS         NOT AVBL                                               
REDMOND        CLEAR     17  12  80 E3        30.05S                  
BEND           CLEAR     16  12  86 S7        30.03F                  
PRINEVILLE     CLEAR     12  10  92 E3        30.05                   
KLAMATH FALLS  PTCLDY    16  10  77 E5        30.01S                  
LAKEVIEW       PTCLDY     8   5  87 N7        29.98S                  
HERMISTON      MOCLDY    18  14  84 CALM      30.14F                  
PENDLETON      PTCLDY    20  16  84 S9        30.09F                  
JOHN DAY       CLOUDY    20  15  79 CALM      30.02S                  
MEACHAM        PTCLDY    -5 -10  79 CALM      29.97F                  
LA GRANDE      PTCLDY    10   8  92 VRB3      30.06S                  
BAKER CITY     CLEAR     14   9  80 SW7       30.00F                  
BURNS          CLEAR     10   6  84 W7        29.99S                  
ROME             N/A      9   5  84 SE6       29.96S                  
ONTARIO        CLEAR     23  16  74 W9        30.06S                  
$$